User: anonymous   Login
Location: *
(23.5860°S, 65.4036°W)
Time: 17:01:15
(UTC+00:00)
Language:

USA 81 - Orbit

View from above orbital plane
View from above orbital plane
View from above satellite
View from above satellite

Ground track
Ground track

The orbit data is extracted from the following two-line orbital elements,

1 21949U 92023A   19281.10136289 0.00000022  00000-0  83036-5 0    04
2 21949  84.9937  42.8419 0002437 355.4087   4.5911 14.31437319    09
Epoch (UTC): 08 October 2019 02:25:57
Eccentricity: 0.0002437
inclination: 84.9937°
perigee height: 785 km
apogee height: 788 km
right ascension of ascending node: 42.8419°
argument of perigee: 355.4087°
revolutions per day: 14.31437319
mean anomaly at epoch: 4.5911°
orbit number at epoch: 0

The dashed part of the orbit path shows where the satellite is in the earth's shadow,  

DLR